K7ADX Weather Reports


time (UTC)temp
F
wind
direction
speed
knots
gust
knots
rain 1hr
in
rain 24hr
in
rain mn
in
humidity
%
barometer
mb
20260506033528 68 314 0.9 7.0 0.00 0.30 0.17 42 1013.0
20260506033040 68 253 2.6 6.1 0.00 0.30 0.17 42 1012.9
20260506032528 68 351 1.7 7.0 0.00 0.30 0.17 43 1012.8
20260506032031 69 290 0.9 7.0 0.00 0.30 0.17 44 1012.6
20260506031550 69 229 2.6 6.1 0.00 0.30 0.17 43 1012.5
20260506031028 69 207 1.7 6.1 0.00 0.30 0.17 42 1012.3
20260506030527 69 316 2.6 6.1 0.00 0.30 0.17 42 1012.1
20260506030043 69 237 3.5 7.0 0.00 0.30 0.17 40 1012.0
20260506025527 69 251 2.6 7.8 0.00 0.31 0.17 39 1011.9
20260506025030 69 288 1.7 7.8 0.00 0.31 0.17 38 1011.8
20260506024547 69 154 1.7 6.1 0.00 0.31 0.17 38 1011.8
20260506024028 70 237 1.7 6.1 0.00 0.31 0.17 38 1011.7
20260506023528 70 255 1.7 6.1 0.00 0.31 0.17 37 1011.6
20260506023041 70 108 1.7 6.1 0.00 0.31 0.17 37 1011.6
20260506022528 70 231 2.6 9.6 0.00 0.31 0.17 37 1011.5
20260506022027 70 235 3.5 9.6 0.00 0.31 0.17 37 1011.4
20260506021544 70 229 2.6 8.7 0.00 0.31 0.17 37 1011.3
20260506021028 71 233 2.6 8.7 0.00 0.31 0.17 36 1011.2
20260506020530 71 239 2.6 7.8 0.00 0.31 0.17 36 1011.1
20260506020040 71 27 2.6 7.8 0.00 0.31 0.17 36 1011.0
20260506015532 71 242 3.5 7.8 0.00 0.32 0.17 35 1011.0
20260506015028 71 277 2.6 9.6 0.00 0.32 0.17 35 1010.9
20260506014543 71 283 3.5 9.6 0.00 0.32 0.17 34 1011.0
20260506014028 72 230 2.6 7.0 0.00 0.32 0.17 33 1011.0
20260506013529 72 236 2.6 7.0 0.00 0.32 0.17 32 1010.9
20260506013041 72 230 1.7 7.8 0.00 0.32 0.17 32 1010.9
20260506012527 72 210 2.6 11.3 0.00 0.32 0.17 31 1010.8
20260506012030 73 218 2.6 11.3 0.00 0.32 0.17 30 1010.9
20260506011544 74 226 2.6 9.6 0.00 0.32 0.17 30 1010.9
20260506011031 74 214 3.5 10.4 0.00 0.32 0.17 29 1010.9
20260506010528 74 314 3.5 10.4 0.00 0.32 0.17 30 1010.9
20260506010046 74 210 3.5 8.7 0.00 0.32 0.17 30 1010.8
20260506005527 74 255 3.5 10.4 0.00 0.33 0.17 30 1010.8
20260506005027 74 293 3.5 10.4 0.00 0.33 0.17 30 1010.8
20260506004540 74 254 5.2 11.3 0.00 0.33 0.17 31 1010.7
20260506004028 74 312 3.5 12.2 0.00 0.33 0.17 30 1010.7
20260506003529 75 232 6.1 12.2 0.00 0.33 0.17 30 1010.6
20260506003041 75 11 4.3 10.4 0.00 0.33 0.17 31 1010.6
20260506002527 75 291 5.2 9.6 0.00 0.33 0.17 30 1010.6
20260506002027 75 272 3.5 8.7 0.00 0.33 0.17 30 1010.3
20260506001540 76 312 4.3 8.7 0.00 0.33 0.17 30 1010.3
20260506001025 76 258 3.5 11.3 0.00 0.33 0.17 30 1010.3
20260506000528 76 248 5.2 11.3 0.00 0.33 0.17 30 1010.2
20260506000044 76 234 5.2 10.4 0.00 0.33 0.17 29 1010.3
20260505235530 76 127 3.5 12.2 0.00 0.33 0.17 29 1010.2
20260505235030 76 274 4.3 12.2 0.00 0.33 0.17 29 1010.2
20260505234548 76 255 5.2 12.2 0.00 0.33 0.17 28 1010.0
20260505234031 76 254 5.2 9.6 0.00 0.33 0.17 30 1010.1
20260505233527 77 319 3.5 9.6 0.00 0.33 0.17 29 1010.0
20260505233042 77 239 3.5 12.2 0.00 0.33 0.17 30 1010.0
20260505232527 76 233 5.2 12.2 0.00 0.33 0.17 30 1009.9
20260505232027 76 134 5.2 9.6 0.00 0.33 0.17 30 1010.0
20260505231551 76 13 4.3 9.6 0.00 0.33 0.17 28 1010.0
20260505231027 77 210 4.3 9.6 0.00 0.33 0.17 28 1009.9
20260505230527 76 214 2.6 9.6 0.00 0.33 0.17 31 1009.8
20260505230052 76 231 2.6 9.6 0.00 0.33 0.17 30 1010.0
20260505225528 77 278 2.6 9.6 0.00 0.33 0.17 31 1010.1
20260505225030 77 312 3.5 9.6 0.00 0.33 0.17 32 1010.1
20260505224544 77 230 4.3 9.6 0.00 0.33 0.17 30 1010.1
20260505224027 77 221 3.5 10.4 0.00 0.33 0.17 31 1010.1
20260505223529 77 238 2.6 10.4 0.00 0.33 0.17 31 1010.1
20260505223041 76 317 3.5 12.2 0.00 0.33 0.17 31 1010.3
20260505222527 76 274 2.6 13.0 0.00 0.33 0.17 31 1010.3
20260505222025 76 25 6.1 13.0 0.00 0.33 0.17 31 1010.3
20260505221542 76 287 3.5 9.6 0.00 0.33 0.17 32 1010.5
20260505221029 76 30 4.3 9.6 0.00 0.33 0.17 32 1010.6
20260505220525 76 231 4.3 9.6 0.00 0.33 0.17 33 1010.6
20260505220047 75 330 2.6 11.3 0.00 0.33 0.17 33 1010.6
20260505215529 75 315 3.5 11.3 0.00 0.33 0.17 32 1010.7
20260505215025 76 267 4.3 9.6 0.00 0.33 0.17 32 1010.8
20260505214543 76 207 3.5 9.6 0.00 0.33 0.17 33 1010.7
20260505214028 76 247 3.5 8.7 0.00 0.33 0.17 33 1010.8
20260505213527 75 305 4.3 10.4 0.00 0.33 0.17 34 1010.8
20260505213052 75 320 3.5 11.3 0.00 0.33 0.17 34 1010.9
20260505212526 75 275 2.6 11.3 0.00 0.33 0.17 34 1010.9
20260505212028 76 288 3.5 9.6 0.00 0.33 0.17 33 1011.0
20260505211544 76 236 3.5 8.7 0.00 0.33 0.17 33 1011.2
20260505211028 76 208 1.7 5.2 0.00 0.33 0.17 34 1011.0
20260505210527 75 6 0.0 5.2 0.00 0.33 0.17 41 1011.1
20260505210046 74 179 2.6 5.2 0.00 0.33 0.17 41 1011.4
20260505205528 74 276 0.9 6.1 0.00 0.33 0.17 44 1011.4
20260505205028 74 243 2.6 6.1 0.00 0.33 0.17 44 1011.5
20260505204548 74 288 2.6 7.0 0.00 0.33 0.17 44 1011.4
20260505204025 73 242 1.7 7.0 0.00 0.33 0.17 46 1011.5
20260505203526 73 289 2.6 8.7 0.00 0.33 0.17 45 1011.5
20260505203045 74 236 3.5 8.7 0.00 0.33 0.17 46 1011.5
20260505202525 74 276 2.6 7.0 0.00 0.33 0.17 46 1011.6
20260505202024 73 172 1.7 9.6 0.00 0.33 0.17 47 1011.6
20260505201547 74 289 3.5 9.6 0.00 0.33 0.17 46 1011.7
20260505201030 75 351 2.6 7.8 0.00 0.33 0.17 46 1011.6
20260505200528 75 295 2.6 8.7 0.00 0.33 0.17 47 1011.7
20260505200044 74 49 2.6 8.7 0.00 0.33 0.17 49 1011.8
20260505195528 74 342 3.5 8.7 0.00 0.33 0.17 47 1011.8
20260505195027 75 304 2.6 8.7 0.00 0.33 0.17 48 1011.7
20260505194546 75 326 0.9 4.3 0.00 0.33 0.17 48 1011.7
20260505194028 74 30 1.7 6.1 0.00 0.33 0.17 51 1011.8
20260505193527 73 240 0.9 8.7 0.00 0.33 0.17 51 1012.0
20260505193040 73 283 1.7 11.3 0.00 0.33 0.17 52 1012.0
20260505192528 72 298 2.6 11.3 0.00 0.33 0.17 52 1012.0
20260505192025 73 281 1.7 5.2 0.00 0.33 0.17 53 1012.1
20260505191550 72 221 0.9 6.1 0.00 0.33 0.17 54 1012.1
20260505191025 72 210 2.6 6.1 0.00 0.33 0.17 54 1012.2
20260505190527 71 294 1.7 6.1 0.00 0.33 0.17 55 1012.3
20260505190045 71 313 1.7 6.1 0.00 0.33 0.17 55 1012.2
20260505185525 70 0 1.7 7.0 0.00 0.33 0.17 55 1012.2
20260505185025 70 249 0.9 7.8 0.00 0.33 0.17 57 1012.3
20260505184543 70 223 2.6 7.8 0.00 0.33 0.17 56 1012.4
20260505184027 71 301 1.7 6.1 0.00 0.33 0.17 57 1012.3
20260505183526 71 271 1.7 6.1 0.00 0.33 0.17 56 1012.5
20260505183042 70 293 1.7 8.7 0.00 0.33 0.17 56 1012.6
20260505182524 70 337 2.6 8.7 0.00 0.33 0.17 57 1012.6
20260505182026 70 287 2.6 8.7 0.00 0.33 0.17 56 1012.7
20260505181541 70 0 0.9 6.1 0.00 0.33 0.17 58 1012.7
20260505181027 70 285 1.7 6.1 0.00 0.33 0.17 57 1012.7
20260505180528 71 285 0.9 4.3 0.00 0.33 0.17 57 1012.8
20260505180053 71 238 1.7 4.3 0.00 0.33 0.17 57 1012.8
20260505175525 70 18 0.9 4.3 0.00 0.33 0.17 60 1012.8
20260505175026 70 264 1.7 5.2 0.00 0.33 0.17 58 1012.9
20260505174552 69 284 1.7 5.2 0.00 0.33 0.17 60 1013.0
20260505174027 69 319 0.9 4.3 0.00 0.33 0.17 60 1013.0
20260505173529 69 240 0.9 4.3 0.00 0.33 0.17 60 1013.1
20260505173046 69 280 0.9 5.2 0.00 0.33 0.17 60 1013.2
20260505172526 69 290 1.7 5.2 0.00 0.33 0.17 61 1013.2
20260505172028 68 281 1.7 5.2 0.00 0.33 0.17 62 1013.3
20260505171547 68 219 0.9 4.3 0.00 0.33 0.17 62 1013.1
20260505171029 68 242 1.7 3.5 0.00 0.33 0.17 62 1013.1
20260505170526 68 0 0.9 5.2 0.00 0.33 0.17 62 1013.0
20260505170039 67 39 0.9 5.2 0.00 0.33 0.17 63 1013.1
20260505165528 67 247 0.9 4.3 0.00 0.33 0.17 63 1013.1
20260505165025 67 217 0.0 4.3 0.00 0.33 0.17 64 1013.0
20260505164540 66 260 0.0 4.3 0.00 0.33 0.17 63 1013.1
20260505164031 66 290 0.9 4.3 0.00 0.33 0.17 64 1013.2
20260505163529 66 156 0.9 4.3 0.00 0.33 0.17 64 1013.2
20260505163044 66 278 1.7 4.3 0.00 0.33 0.17 63 1013.2
20260505162526 66 238 0.0 3.5 0.00 0.33 0.17 66 1013.1
20260505162025 66 219 0.9 3.5 0.00 0.33 0.17 65 1013.0
20260505161550 65 235 0.0 1.7 0.00 0.33 0.17 70 1013.1
20260505161025 64 273 0.0 1.7 0.00 0.33 0.17 69 1013.1
20260505160527 64 0 0.0 1.7 0.00 0.33 0.17 69 1013.3
20260505153039 63 0 0.0 1.7 0.00 0.33 0.17 72 1013.1
20260505152525 64 219 0.0 0.9 0.00 0.33 0.17 77 1013.0
20260505152025 63 0 0.0 1.7 0.00 0.33 0.17 80 1013.0
20260505151546 63 0 0.0 1.7 0.00 0.33 0.17 80 1013.1
20260505151025 62 217 0.0 0.9 0.00 0.33 0.17 80 1013.1
20260505150525 62 0 0.0 0.0 0.00 0.33 0.17 82 1013.0
20260505140525 60 0 0.0 0.9 0.00 0.33 0.17 88 1012.8
20260505125027 59 0 0.0 1.7 0.00 0.33 0.17 90 1012.1
20260505124545 59 126 0.0 0.9 0.00 0.33 0.17 90 1011.9
20260505124026 59 0 0.0 0.9 0.00 0.33 0.17 90 1011.9
20260505123524 59 0 0.0 1.7 0.00 0.33 0.17 90 1011.8
20260505123059 59 0 0.0 1.7 0.00 0.33 0.17 90 1011.7
20260505122525 59 0 0.0 1.7 0.00 0.33 0.17 90 1011.6
20260505122025 59 0 0.0 0.9 0.00 0.33 0.17 90 1011.5
20260505121542 59 0 0.0 0.0 0.01 0.33 0.17 90 1011.8
20260505121025 59 0 0.0 0.9 0.01 0.33 0.17 90 1011.9
20260505120524 59 0 0.0 0.9 0.01 0.33 0.17 90 1011.7
20260505120042 59 0 0.0 0.9 0.01 0.33 0.17 90 1011.7
20260505115525 59 0 0.0 0.9 0.01 0.33 0.17 90 1011.9
20260505115025 59 0 0.0 0.9 0.01 0.33 0.17 90 1011.8
20260505114542 59 0 0.0 0.9 0.02 0.33 0.17 90 1011.6
20260505114028 59 131 0.0 0.9 0.02 0.33 0.17 90 1011.7
20260505113526 59 131 0.0 1.7 0.02 0.33 0.17 90 1011.6
20260505113049 59 139 0.0 1.7 0.02 0.33 0.17 90 1011.4
20260505112525 59 0 0.0 1.7 0.02 0.33 0.17 90 1011.6
20260505112025 59 207 0.0 0.9 0.02 0.33 0.17 90 1011.9
20260505111543 59 228 0.0 3.5 0.02 0.32 0.16 90 1012.0
20260505111026 59 174 0.0 3.5 0.02 0.32 0.16 90 1011.7
20260505110528 59 195 0.0 2.6 0.02 0.32 0.16 90 1011.8
20260505102026 60 123 2.6 6.1 0.01 0.31 0.15 89 1011.9
20260505101600 60 89 1.7 4.3 0.00 0.30 0.14 89 1012.2
20260505101025 60 117 1.7 6.1 0.00 0.30 0.14 88 1012.5
20260505100525 60 112 1.7 6.1 0.00 0.30 0.14 88 1012.9
20260505100100 60 220 0.9 5.2 0.00 0.30 0.14 88 1013.1
20260505095527 60 141 1.7 7.8 0.01 0.30 0.14 88 1012.9
20260505095024 60 216 0.9 7.8 0.01 0.30 0.14 88 1012.8
20260505094541 60 123 0.9 7.8 0.01 0.30 0.14 88 1012.9
20260505094026 60 159 2.6 7.8 0.01 0.30 0.14 88 1012.5
20260505093527 60 155 1.7 7.8 0.02 0.30 0.14 88 1012.5
20260505093041 60 221 2.6 7.8 0.02 0.30 0.14 88 1012.5
20260505092527 60 91 2.6 6.1 0.02 0.30 0.14 89 1012.8
20260505092027 60 101 1.7 7.0 0.03 0.30 0.14 89 1012.8
20260505091541 60 198 1.7 7.0 0.03 0.30 0.14 89 1012.9
20260505091027 60 185 0.9 5.2 0.04 0.30 0.14 89 1013.0
20260505090526 60 208 1.7 5.2 0.04 0.30 0.14 89 1013.1
20260505090040 60 174 1.7 6.1 0.05 0.30 0.14 89 1012.9
20260505085526 60 160 1.7 6.1 0.05 0.29 0.13 89 1012.8
20260505085026 60 116 0.9 6.1 0.06 0.29 0.13 89 1013.0
20260505084545 60 125 0.9 6.1 0.06 0.29 0.13 90 1013.1
20260505084024 60 107 1.7 7.0 0.07 0.29 0.13 89 1013.2
20260505083526 60 115 2.6 7.0 0.07 0.28 0.12 90 1013.4
20260505083043 60 195 1.7 8.7 0.07 0.28 0.12 90 1013.5
20260505082525 60 354 2.6 8.7 0.08 0.28 0.12 90 1013.9
20260505082025 60 124 2.6 8.7 0.08 0.27 0.11 90 1013.9
20260505081553 60 236 1.7 5.2 0.09 0.27 0.11 89 1014.1
20260505081025 60 94 1.7 5.2 0.09 0.26 0.10 89 1014.1
20260505080526 60 108 1.7 5.2 0.09 0.26 0.10 89 1014.1
20260505080051 60 90 1.7 5.2 0.09 0.25 0.09 90 1014.5
20260505075526 60 118 1.7 6.1 0.08 0.24 0.08 89 1014.7
20260505075026 60 183 0.9 6.1 0.07 0.23 0.07 89 1014.8
20260505074541 60 117 1.7 6.1 0.08 0.23 0.07 89 1015.0
20260505074026 60 79 0.9 3.5 0.07 0.22 0.06 89 1014.9
20260505073526 60 0 0.0 3.5 0.07 0.21 0.05 90 1015.1
20260505073040 60 122 0.9 3.5 0.06 0.20 0.04 89 1015.2
20260505072525 60 0 0.0 3.5 0.07 0.20 0.04 89 1014.9
20260505072026 60 127 0.0 1.7 0.06 0.19 0.03 89 1015.2
20260505071542 60 0 0.0 1.7 0.06 0.18 0.02 89 1015.2
20260505071025 60 126 0.0 0.9 0.05 0.17 0.01 89 1015.4
20260505070526 60 0 0.0 0.9 0.05 0.17 0.01 89 1015.1
20260505070045 60 0 0.0 0.0 0.04 0.16 0.00 89 1015.0
20260505065526 60 0 0.0 0.0 0.04 0.16 0.16 89 1015.0
20260505065024 60 0 0.0 0.0 0.04 0.16 0.16 89 1015.1
20260505064541 60 0 0.0 0.0 0.03 0.15 0.15 89 1015.0
20260505064027 60 0 0.0 0.0 0.04 0.15 0.15 89 1015.1
20260505063530 60 0 0.0 0.0 0.03 0.14 0.14 89 1015.0
20260505063048 59 0 0.0 0.0 0.03 0.14 0.14 89 1014.9
20260505062528 59 0 0.0 0.0 0.02 0.13 0.13 88 1014.9
20260505062027 59 0 0.0 0.0 0.03 0.13 0.13 88 1015.0
20260505061546 59 0 0.0 0.0 0.02 0.12 0.12 88 1015.1
20260505061028 60 0 0.0 0.0 0.02 0.12 0.12 88 1015.2
20260505060528 59 0 0.0 0.0 0.02 0.12 0.12 87 1015.2
20260505060046 59 0 0.0 0.0 0.02 0.12 0.12 87 1015.3
20260505055528 59 0 0.0 0.0 0.02 0.12 0.12 87 1015.3
20260505055028 59 0 0.0 0.0 0.02 0.12 0.12 86 1015.1
20260505054547 59 0 0.0 0.0 0.02 0.12 0.12 86 1015.0
20260505054027 59 0 0.0 0.0 0.01 0.11 0.11 85 1015.0
20260505053528 59 0 0.0 0.0 0.01 0.11 0.11 85 1015.1
20260505053046 59 0 0.0 2.6 0.02 0.11 0.11 85 1015.1
20260505052530 59 0 0.0 2.6 0.01 0.10 0.10 85 1015.0
20260505052030 59 0 0.0 2.6 0.01 0.10 0.10 84 1014.9
20260505051542 59 150 0.9 2.6 0.02 0.10 0.10 84 1014.8
20260505051027 59 104 0.9 2.6 0.02 0.10 0.10 84 1014.7
20260505050527 59 139 0.0 3.5 0.03 0.10 0.10 84 1014.8
20260505041541 59 0 0.0 2.6 0.05 0.08 0.08 79 1015.0
20260505041028 59 0 0.0 2.6 0.05 0.08 0.08 77 1015.0
20260505040528 60 357 0.9 2.6 0.04 0.07 0.07 75 1015.1
20260505040042 60 195 0.0 2.6 0.03 0.06 0.06 73 1015.2
20260505035527 60 101 0.0 4.3 0.03 0.06 0.06 71 1015.1
20260505035028 61 176 0.9 4.3 0.02 0.05 0.05 70 1015.0
20260505034545 61 143 1.7 4.3 0.02 0.05 0.05 67 1015.1
20260505034110 62 193 0.9 2.6 0.01 0.04 0.04 66 1014.8